This is the latest recevied weather packets stored in our database for station/object SV3CQY. If no packets are shown the sender has not sent any weather packets the latest 10 day(s).
| Time | Temp. | Humidity | Pressure | Rain* | Wind** | Luminosity | Snow |
|---|---|---|---|---|---|---|---|
| 1777637409 | 13.33° C | 68% | 1017.9 hPa | 0 mm | - | - | - |
| 1777636509 | 13.33° C | 69% | 1018.1 hPa | 0 mm | - | - | - |
| 1777635931 | 14.44° C | 62% | 1017.9 hPa | 0 mm | - | - | - |
| 1777634408 | 15° C | 58% | 1018 hPa | 0 mm | - | - | - |
| 1777634129 | 15° C | 60% | 1017.9 hPa | 0 mm | - | - | - |
| 1777633227 | 15° C | 60% | 1017.9 hPa | 0 mm | - | - | - |
| 1777632907 | 15° C | 59% | 1017.9 hPa | 0 mm | - | - | - |
| 1777632335 | 15° C | 61% | 1018.1 hPa | 0 mm | - | - | - |
| 1777631709 | 15° C | 61% | 1018.2 hPa | 0 mm | - | - | - |
| 1777624233 | 14.44° C | 65% | 1017.8 hPa | 0 mm | - | - | - |
| 1777621528 | 14.44° C | 65% | 1017.4 hPa | 0 mm | - | - | - |
| 1777618833 | 14.44° C | 65% | 1017 hPa | 0 mm | - | - | - |
| 1777618512 | 14.44° C | 65% | 1017.1 hPa | 0 mm | - | - | - |
| 1777618211 | 14.44° C | 65% | 1017 hPa | 0 mm | - | - | - |
| 1777614609 | 14.44° C | 68% | 1016.2 hPa | 0 mm | - | - | - |
| 1777613715 | 14.44° C | 67% | 1016.2 hPa | 0 mm | - | - | - |
| 1777612531 | 14.44° C | 66% | 1016.1 hPa | 0 mm | - | - | - |
| 1777611629 | 14.44° C | 66% | 1015.9 hPa | 0 mm | - | - | - |
| 1777609514 | 15° C | 67% | 1015.4 hPa | 0 mm | - | - | - |
| 1777609210 | 15° C | 66% | 1015.3 hPa | 0 mm | - | - | - |
| 1777608932 | 15° C | 66% | 1015.3 hPa | 0 mm | - | - | - |
| 1777608028 | 15° C | 68% | 1014.9 hPa | 0 mm | - | - | - |
| 1777607712 | 15° C | 68% | 1014.8 hPa | 0 mm | - | - | - |
| 1777605922 | 15° C | 71% | 1014.5 hPa | 0 mm | - | - | - |
| 1777604430 | 15.56° C | 68% | 1014.4 hPa | 0 mm | - | - | - |
* Rain latest hour (hover to see other rain measurements)
** Current wind speed in m/s (hover to see current wind gust speed)